Weather History for Sanford, NC

Change the Weather History Date:

Tuesday, September 17, 2013

  Actual Average (KRDU) Record (KRDU)
Temperature  
Mean Temperature 66 °F 72 °F  
Max Temperature 77 °F 82 °F 97 °F (1931)
Min Temperature 55 °F 61 °F 43 °F (1966)
Degree Days  
Heating Degree Days 0 1  
Month to date heating degree days 1  
Since 1 July heating degree days 2  
Cooling Degree Days 1 7  
Month to date cooling degree days 158  
Year to date cooling degree days 1599  
Growing Degree Days 16 (Base 50)    
Moisture  
Dew Point 52 °F    
Average Humidity 62    
Maximum Humidity 90    
Minimum Humidity 34    
Precipitation  
Precipitation 0.00 in 0.15 in 3.41 in (1945)
Month to date precipitation 2.68  
Year to date precipitation 32.22  
Sea Level Pressure  
Sea Level Pressure 30.26 in    
Wind  
Wind Speed 6 mph (NE)    
Max Wind Speed 14 mph    
Max Gust Speed 21 mph    
Visibility 10 miles    
Events      
T = Trace of Precipitation, MM = Missing Value Source: NWS Daily Summary

Daily Weather History Graph

Daily Weather History Graph

Search for Another Location

Airport:

Trip Planner

Search our weather history database for the weather conditions in past years. The results will help you decide how hot, cold, wet, or windy it might be!

Date:

Astronomy

Sep. 17, 2013 Rise Set
Actual Time 7:00 AM EDT 7:20 PM EDT
Civil Twilight 6:35 AM EDT 7:45 PM EDT
Nautical Twilight 6:05 AM EDT 8:15 PM EDT
Astronomical Twilight 5:34 AM EDT 8:45 PM EDT
Moon 6:04 PM EDT (9/17) 4:56 AM EDT (9/17)
Length of Visible Light 13h 10m
Length of Day
12h 19m
Waxing Gibbous, 96% of the Moon is Illuminated
Sep 17
Waxing Gibbous
Sep 19
Full
Sep 26
Last Quarter
Oct 4
New
Oct 11
First Quarter

Hourly Weather History & Observations

Time (EDT) Temp. Dew Point Humidity Pressure Visibility Wind Dir Wind Speed Gust Speed Precip Events Conditions
12:15 AM 70.2 °F 59.2 °F 68% 30.19 in 10.0 mi NE 11.5 mph - N/A   Overcast
12:35 AM 69.8 °F 55.8 °F 61% 30.20 in 10.0 mi NNE 6.9 mph - N/A   Overcast
12:55 AM 69.4 °F 53.6 °F 57% 30.20 in 10.0 mi NNE 9.2 mph - N/A   Overcast
1:15 AM 68.7 °F 54.5 °F 60% 30.20 in 10.0 mi NNE 4.6 mph - N/A   Overcast
1:35 AM 68.4 °F 54.9 °F 62% 30.20 in 10.0 mi NNE 8.1 mph - N/A   Overcast
1:55 AM 67.3 °F 55.6 °F 66% 30.20 in 10.0 mi NNE 3.5 mph - N/A   Overcast
2:15 AM 66.4 °F 56.3 °F 70% 30.21 in 10.0 mi NNE 4.6 mph - N/A   Overcast
2:35 AM 66.0 °F 56.3 °F 71% 30.21 in 10.0 mi NNE 6.9 mph - N/A   Mostly Cloudy
2:55 AM 64.6 °F 56.5 °F 75% 30.21 in 10.0 mi North 3.5 mph - N/A   Scattered Clouds
3:15 AM 63.5 °F 56.5 °F 78% 30.22 in 10.0 mi NE 4.6 mph - N/A   Clear
3:35 AM 63.5 °F 56.5 °F 78% 30.22 in 10.0 mi NNE 4.6 mph - N/A   Scattered Clouds
3:55 AM 64.2 °F 56.3 °F 75% 30.22 in 10.0 mi NE 3.5 mph - N/A   Mostly Cloudy
4:15 AM 64.4 °F 56.5 °F 75% 30.22 in 10.0 mi North 3.5 mph - N/A   Overcast
4:35 AM 63.7 °F 56.5 °F 77% 30.22 in 10.0 mi NNE 4.6 mph - N/A   Overcast
4:55 AM 63.3 °F 55.8 °F 76% 30.22 in 10.0 mi NE 4.6 mph - N/A   Overcast
5:15 AM 62.6 °F 55.4 °F 77% 30.23 in 10.0 mi NNE 4.6 mph - N/A   Mostly Cloudy
5:35 AM 61.9 °F 54.9 °F 78% 30.23 in 10.0 mi NNE 4.6 mph - N/A   Mostly Cloudy
5:55 AM 61.9 °F 55.4 °F 79% 30.24 in 10.0 mi NE 3.5 mph - N/A   Overcast
6:15 AM 62.2 °F 55.4 °F 78% 30.24 in 10.0 mi NNE 3.5 mph - N/A   Overcast
6:35 AM 62.6 °F 55.0 °F 76% 30.25 in 10.0 mi NNE 4.6 mph - N/A   Overcast
6:55 AM 62.8 °F 55.4 °F 77% 30.25 in 10.0 mi NNE 6.9 mph - N/A   Overcast
7:15 AM 62.6 °F 55.0 °F 76% 30.27 in 10.0 mi NE 4.6 mph - N/A   Overcast
7:35 AM 62.8 °F 54.9 °F 75% 30.27 in 10.0 mi NNE 6.9 mph - N/A   Overcast
7:55 AM 63.7 °F 55.0 °F 73% 30.28 in 10.0 mi NNE 9.2 mph - N/A   Overcast
8:15 AM 63.9 °F 55.2 °F 73% 30.28 in 10.0 mi NNE 10.4 mph - N/A   Overcast
8:35 AM 64.9 °F 55.4 °F 71% 30.28 in 10.0 mi NE 8.1 mph - N/A   Mostly Cloudy
8:55 AM 65.7 °F 54.7 °F 68% 30.30 in 10.0 mi NE 9.2 mph - N/A   Scattered Clouds
9:15 AM 66.7 °F 54.9 °F 66% 30.30 in 10.0 mi NNE 10.4 mph 16.1 mph N/A   Clear
9:35 AM 67.5 °F 54.9 °F 64% 30.30 in 10.0 mi NNE 10.4 mph 16.1 mph N/A   Clear
9:55 AM 68.9 °F 54.7 °F 60% 30.30 in 10.0 mi NE 9.2 mph - N/A   Clear
10:15 AM 69.8 °F 54.5 °F 58% 30.31 in 10.0 mi NE 9.2 mph - N/A   Clear
10:35 AM 70.7 °F 53.6 °F 55% 30.31 in 10.0 mi NE 10.4 mph 17.3 mph N/A   Clear
10:55 AM 71.8 °F 52.3 °F 50% 30.32 in 10.0 mi NE 6.9 mph 16.1 mph N/A   Clear
11:15 AM 72.7 °F 51.4 °F 47% 30.31 in 10.0 mi NE 10.4 mph 16.1 mph N/A   Clear
11:35 AM 73.0 °F 49.8 °F 44% 30.31 in 10.0 mi NE 8.1 mph 20.7 mph N/A   Clear
11:55 AM 73.4 °F 49.3 °F 42% 30.31 in 10.0 mi ENE 8.1 mph 17.3 mph N/A   Clear
12:15 PM 74.5 °F 49.5 °F 41% 30.31 in 10.0 mi NE 13.8 mph 19.6 mph N/A   Clear
12:35 PM 74.3 °F 46.8 °F 37% 30.30 in 10.0 mi ENE 9.2 mph 20.7 mph N/A   Clear
12:55 PM 75.2 °F 47.5 °F 37% 30.30 in 10.0 mi ENE 9.2 mph 16.1 mph N/A   Clear
1:15 PM 75.4 °F 47.5 °F 37% 30.30 in 10.0 mi East 8.1 mph - N/A   Clear
1:35 PM 75.2 °F 47.8 °F 38% 30.29 in 10.0 mi NE 8.1 mph - N/A   Scattered Clouds
1:55 PM 75.7 °F 47.7 °F 37% 30.29 in 10.0 mi NNE 8.1 mph - N/A   Scattered Clouds
2:15 PM 75.6 °F 48.4 °F 38% 30.28 in 10.0 mi NNE 6.9 mph - N/A   Scattered Clouds
2:35 PM 76.3 °F 46.9 °F 35% 30.27 in 10.0 mi North 9.2 mph 16.1 mph N/A   Scattered Clouds
2:55 PM 75.9 °F 47.1 °F 36% 30.26 in 10.0 mi NE 6.9 mph - N/A   Scattered Clouds
3:15 PM 76.8 °F 46.4 °F 34% 30.26 in 10.0 mi NE 8.1 mph - N/A   Scattered Clouds
3:35 PM 76.5 °F 46.9 °F 35% 30.25 in 10.0 mi NE 6.9 mph - N/A   Scattered Clouds
3:55 PM 77.0 °F 47.7 °F 35% 30.24 in 10.0 mi ENE 10.4 mph - N/A   Scattered Clouds
4:15 PM 76.3 °F 46.8 °F 35% 30.24 in 10.0 mi NE 6.9 mph - N/A   Clear
4:35 PM 76.3 °F 47.1 °F 36% 30.24 in 10.0 mi ENE 3.5 mph - N/A   Clear
4:55 PM 75.6 °F 47.7 °F 37% 30.24 in 10.0 mi East 5.8 mph - N/A   Clear
5:15 PM 75.6 °F 48.4 °F 38% 30.24 in 10.0 mi East 5.8 mph - N/A   Scattered Clouds
5:35 PM 75.0 °F 47.7 °F 38% 30.24 in 10.0 mi East 5.8 mph - N/A   Clear
5:55 PM 74.7 °F 48.7 °F 40% 30.24 in 10.0 mi ESE 6.9 mph - N/A   Scattered Clouds
6:15 PM 73.6 °F 48.6 °F 41% 30.24 in 10.0 mi ENE 4.6 mph - N/A   Scattered Clouds
6:35 PM 72.5 °F 50.0 °F 45% 30.24 in 10.0 mi Calm Calm - N/A   Clear
6:55 PM 71.2 °F 51.1 °F 49% 30.24 in 10.0 mi Calm Calm - N/A   Clear
7:15 PM 69.3 °F 51.3 °F 53% 30.24 in 10.0 mi Calm Calm - N/A   Clear
7:35 PM 67.5 °F 52.0 °F 58% 30.24 in 10.0 mi Calm Calm - N/A   Clear
7:55 PM 64.8 °F 53.8 °F 68% 30.24 in 7.0 mi Calm Calm - N/A   Clear
8:15 PM 62.4 °F 54.1 °F 74% 30.24 in 10.0 mi Calm Calm - N/A   Clear
8:35 PM 60.1 °F 54.7 °F 82% 30.25 in 10.0 mi Calm Calm - N/A   Clear
8:55 PM 58.8 °F 54.7 °F 86% 30.26 in 10.0 mi Calm Calm - N/A   Clear
9:15 PM 57.9 °F 54.1 °F 87% 30.26 in 10.0 mi Calm Calm - N/A   Clear
9:35 PM 56.5 °F 53.6 °F 90% 30.27 in 10.0 mi Calm Calm - N/A   Clear
9:55 PM 56.3 °F 53.2 °F 89% 30.27 in 10.0 mi Calm Calm - N/A   Clear
10:15 PM 56.1 °F 52.7 °F 88% 30.28 in 10.0 mi Calm Calm - N/A   Clear
10:35 PM 58.1 °F 51.8 °F 80% 30.28 in 10.0 mi Calm Calm - N/A   Clear
10:55 PM 57.2 °F 52.0 °F 83% 30.29 in 10.0 mi North 3.5 mph - N/A   Clear
11:15 PM 56.5 °F 51.8 °F 84% 30.30 in 10.0 mi NNE 3.5 mph - N/A   Clear
11:35 PM 55.8 °F 50.9 °F 84% 30.30 in 10.0 mi Calm Calm - N/A   Clear
11:55 PM 55.4 °F 51.4 °F 87% 30.30 in 10.0 mi Calm Calm - N/A   Clear